Lihue, HI

5:04 AM HST on February 21, 2017 (GMT -1000)
Lihue

Weather History for PHLI - February, 2014

Change the Weather History Date:

Saturday, February 1, 2014

  Actual Average Record
Temperature  
Mean Temperature 75 °F 72 °F  
Max Temperature 81 °F 78 °F 84 °F (1981)
Min Temperature 69 °F 65 °F 54 °F (1985)
Degree Days  
Heating Degree Days 0 0  
Month to date heating degree days 0 0  
Since 1 July heating degree days 0 0  
Cooling Degree Days 10 7  
Month to date cooling degree days 10 7  
Year to date cooling degree days 206 216  
Growing Degree Days 24 (Base 50)    
Moisture  
Dew Point 67 °F    
Average Humidity 76    
Maximum Humidity 93    
Minimum Humidity 58    
Precipitation  
Precipitation 0.28 in 0.12 in 3.59 in (1975)
Month to date precipitation 0.28 0.12  
Year to date precipitation 1.99 3.87  
Snow  
Snow 0.00 in - - ()
Month to date snowfall 0.0  
Since 1 July snowfall 0.0  
Snow Depth 0.00 in    
Sea Level Pressure  
Sea Level Pressure 29.82 in    
Wind  
Wind Speed 10 mph (SW)    
Max Wind Speed 6 mph    
Max Gust Speed 8 mph    
Visibility 10 miles    
Events Rain    
T = Trace of Precipitation, MM = Missing Value Source: NWS Daily Summary

Daily Weather History Graph

Daily Weather History Graph

Search for Another Location

Airport or City:

Trip Planner

Search our weather history database for the weather conditions in past years. The results will help you decide how hot, cold, wet, or windy it might be!

Date:

Astronomy

Feb. 01, 2014 Rise Set
Actual Time 7:15 AM HST 6:26 PM HST
Civil Twilight 6:52 AM HST 6:50 PM HST
Nautical Twilight 6:25 AM HST 7:16 PM HST
Astronomical Twilight 5:58 AM HST 7:43 PM HST
Moon 8:34 AM HST (2/1) 8:49 PM HST (2/1)
Length of Visible Light 11h 57m
Length of Day
11h 11m
Waxing Crescent, 6% of the Moon is Illuminated
Feb 1
Waxing Crescent
Feb 6
First Quarter
Feb 14
Full
Feb 22
Last Quarter
Feb 28
New

Hourly Weather History & Observations

Time (HST) Temp. Heat Index Dew Point Humidity Pressure Visibility Wind Dir Wind Speed Gust Speed Precip Events Conditions
12:14 AM 73.4 °F - 69.8 °F 88% 29.80 in 10.0 mi South 13.8 mph 20.7 mph N/A   Mostly Cloudy
12:53 AM 71.1 °F - 68.0 °F 90% 29.78 in 3.0 mi SW 21.9 mph 31.1 mph 0.18 in Rain Rain
1:02 AM 71.6 °F - 66.2 °F 83% 29.80 in 5.0 mi SW 19.6 mph 31.1 mph 0.01 in Rain Rain
1:51 AM 71.6 °F - 69.8 °F 94% 29.78 in 10.0 mi SSW 10.4 mph - 0.03 in   Overcast
1:53 AM 72.0 °F - 68.0 °F 87% 29.78 in 10.0 mi SSW 9.2 mph - 0.03 in   Overcast
2:53 AM 73.0 °F - 69.1 °F 87% 29.76 in 7.0 mi SSW 12.7 mph 23.0 mph 0.01 in Rain Light Rain
3:53 AM 73.0 °F - 69.1 °F 87% 29.75 in 10.0 mi SW 10.4 mph 21.9 mph 0.00 in Rain Light Rain
4:03 AM 73.4 °F - 68.0 °F 83% 29.76 in 10.0 mi SSW 10.4 mph 19.6 mph 0.00 in   Mostly Cloudy
4:12 AM 73.4 °F - 68.0 °F 83% 29.76 in 8.0 mi SW 19.6 mph 24.2 mph 0.00 in   Overcast
4:53 AM 72.0 °F - 68.0 °F 87% 29.76 in 9.0 mi WSW 15.0 mph - 0.05 in Rain Light Rain
5:53 AM 71.1 °F - 66.9 °F 87% 29.77 in 10.0 mi WSW 10.4 mph - 0.00 in   Clear
6:53 AM 72.0 °F - 68.0 °F 87% 29.79 in 10.0 mi SW 10.4 mph - N/A   Overcast
7:53 AM 73.0 °F - 66.9 °F 81% 29.81 in 10.0 mi SW 13.8 mph 19.6 mph N/A   Overcast
8:53 AM 73.0 °F - 64.9 °F 76% 29.83 in 10.0 mi SW 10.4 mph - N/A   Overcast
9:53 AM 77.0 °F - 68.0 °F 74% 29.84 in 10.0 mi SW 9.2 mph - N/A   Overcast
10:53 AM 77.0 °F - 66.9 °F 71% 29.85 in 10.0 mi WSW 16.1 mph 23.0 mph N/A   Scattered Clouds
11:53 AM 79.0 °F - 68.0 °F 69% 29.83 in 10.0 mi SW 11.5 mph - 0.00 in   Clear
12:53 PM 81.0 °F 83.0 °F 66.0 °F 60% 29.81 in 10.0 mi WSW 16.1 mph - N/A   Partly Cloudy
1:53 PM 81.0 °F 82.7 °F 64.9 °F 58% 29.80 in 10.0 mi SW 15.0 mph - N/A   Clear
2:53 PM 81.0 °F 82.5 °F 64.0 °F 56% 29.79 in 10.0 mi SW 11.5 mph 19.6 mph N/A   Clear
3:53 PM 77.0 °F - 68.0 °F 74% 29.80 in 10.0 mi ENE 15.0 mph 19.6 mph N/A   Overcast
4:53 PM 73.0 °F - 68.0 °F 84% 29.82 in 10.0 mi NNE 11.5 mph - N/A   Overcast
5:53 PM 72.0 °F - 68.0 °F 87% 29.84 in 10.0 mi NE 9.2 mph - 0.00 in   Overcast
6:53 PM 71.1 °F - 66.9 °F 87% 29.85 in 10.0 mi North 9.2 mph - N/A   Overcast
7:13 PM 69.8 °F - 66.2 °F 88% 29.86 in 10.0 mi NNE 8.1 mph - N/A   Overcast
7:53 PM 70.0 °F - 66.9 °F 90% 29.87 in 10.0 mi Calm Calm - 0.01 in Rain Light Rain
8:53 PM 70.0 °F - 66.9 °F 90% 29.89 in 10.0 mi Calm Calm - 0.00 in   Overcast
9:53 PM 69.1 °F - 66.0 °F 90% 29.90 in 10.0 mi WNW 4.6 mph - N/A   Overcast
10:53 PM 69.1 °F - 64.9 °F 87% 29.91 in 10.0 mi WNW 4.6 mph - N/A   Overcast
11:53 PM 69.1 °F - 64.9 °F 87% 29.89 in 10.0 mi NW 3.5 mph - N/A   Overcast